Weather History for Kars, Turkey

Change the Weather History Date:

Tuesday, December 10, 2013

  Actual Average Record
Temperature  
Mean Temperature 6 °F -  
Max Temperature 17 °F 27 °F - ()
Min Temperature -5 °F 11 °F - ()
Degree Days  
Heating Degree Days 59    
Moisture  
Dew Point 3 °F    
Average Humidity 67    
Maximum Humidity 89    
Minimum Humidity 47    
Precipitation  
Precipitation 0.00 in 0.03 in - ()
Sea Level Pressure  
Sea Level Pressure 29.84 in    
Wind  
Wind Speed 8 mph ()    
Max Wind Speed 15 mph    
Max Gust Speed -    
Visibility 6.1 miles    
Events Snow    
T = Trace of Precipitation, MM = Missing Value Source: Averaged Metar Reports

Daily Weather History Graph

Daily Weather History Graph

Search for Another Location

Airport:

Trip Planner

Search our weather history database for the weather conditions in past years. The results will help you decide how hot, cold, wet, or windy it might be!

Date:

Astronomy

Dec. 10, 2013 Rise Set
Actual Time 6:20 AM EET 3:40 PM EET
Civil Twilight 5:49 AM EET 4:11 PM EET
Nautical Twilight 5:15 AM EET 4:45 PM EET
Astronomical Twilight 4:42 AM EET 5:18 PM EET
Moon 11:31 AM EET (12/10) No Moon Set
Length of Visible Light 10h 21m
Length of Day
9h 20m
First Quarter, 58% of the Moon is Illuminated
Dec 10
First Quarter
Dec 17
Full
Dec 25
Last Quarter
Jan 1
New
Jan 8
First Quarter

Hourly Weather History & Observations

Time (EET) Temp. Windchill Dew Point Humidity Pressure Visibility Wind Dir Wind Speed Gust Speed Precip Events Conditions
12:50 AM -0.4 °F -14.7 °F -7.6 °F 72% 29.95 in - SSW 8.1 mph - N/A   Clear
1:50 AM 8.6 °F -5.5 °F -0.4 °F 67% 29.95 in - WSW 10.4 mph - N/A   Clear
2:00 AM 8 °F - 0 °F 59%  in 6 mi WSW 10.4 mph - -  
2:50 AM 5.0 °F -6.9 °F -2.2 °F 72% 29.92 in - West 6.9 mph - N/A   Clear
3:50 AM 8.6 °F -3.7 °F -0.4 °F 67% 29.92 in - WSW 8.1 mph - N/A   Clear
4:50 AM 8.6 °F -1.3 °F -0.4 °F 67% 29.89 in - West 5.8 mph - N/A   Clear
5:00 AM 9 °F - 1 °F 57%  in 6 mi West 5.8 mph - -  
5:50 AM 6.8 °F -9.3 °F -2.2 °F 67% 29.86 in - SSW 12.7 mph - N/A   Clear
6:50 AM 8.6 °F - -2.2 °F 62% 29.86 in - Variable 1.2 mph - N/A   Clear
7:50 AM 10.4 °F -1.5 °F -0.4 °F 62% 29.86 in 6.2 mi WSW 8.1 mph - N/A   Partly Cloudy
8:00 AM 11 °F - 0 °F 47%  in 6 mi WSW 8.1 mph - -   Scattered Clouds
8:50 AM 10.4 °F -1.5 °F -0.4 °F 62% 29.86 in 6.2 mi WSW 8.1 mph - N/A   Partly Cloudy
9:50 AM 15.8 °F 7.2 °F -0.4 °F 49% 29.83 in 6.2 mi WSW 5.8 mph - N/A   Partly Cloudy
10:50 AM 10.4 °F 0.8 °F 1.4 °F 67% 29.83 in 6.2 mi North 5.8 mph - N/A   Scattered Clouds
11:00 AM 11 °F - 2 °F 56%  in 6 mi North 5.8 mph - -   Partly Cloudy
11:50 AM 15.8 °F 0.9 °F 3.2 °F 58% 29.80 in 6.2 mi SSW 15.0 mph - N/A   Scattered Clouds
12:50 PM 15.8 °F 0.9 °F 5.0 °F 62% 29.80 in 6.2 mi SW 15.0 mph - N/A   Scattered Clouds
1:50 PM 15.8 °F 2.1 °F 5.0 °F 62% 29.80 in 6.2 mi SSW 12.7 mph - N/A   Scattered Clouds
2:00 PM 15 °F - 6 °F 57%  in 6 mi SSW 12.7 mph - -   Partly Cloudy
2:50 PM 15.8 °F 7.2 °F 5.0 °F 62% 29.80 in 6.2 mi West 5.8 mph - N/A   Mostly Cloudy
3:50 PM 14.0 °F 1.2 °F 5.0 °F 67% 29.80 in 6.2 mi SW 10.4 mph - N/A   Mostly Cloudy
4:50 PM 15.8 °F 1.4 °F 6.8 °F 68% 29.80 in 6.2 mi SW 13.8 mph - N/A   Mostly Cloudy
5:00 PM 15 °F - 8 °F 62%  in 6 mi SW 13.8 mph - -   Partly Cloudy
5:50 PM 15.8 °F 2.7 °F 6.8 °F 68% 29.80 in 6.2 mi SW 11.5 mph - N/A   Mostly Cloudy
6:50 PM 15.8 °F 0.9 °F 8.6 °F 73% 29.80 in 6.2 mi SW 15.0 mph - N/A   Mostly Cloudy
7:50 PM 15.8 °F 1.4 °F 10.4 °F 79% 29.80 in 6.2 mi SW 13.8 mph - N/A   Mostly Cloudy
8:00 PM 15 °F - 13 °F 85%  in 6 mi SW 13.8 mph - -   Partly Cloudy
8:50 PM 15.8 °F 8.6 °F 12.2 °F 86% 29.80 in 6.2 mi SW 4.6 mph - N/A   Mostly Cloudy
9:50 PM 14.0 °F 8.2 °F 6.8 °F 73% 29.83 in 6.2 mi North 3.5 mph - N/A   Mostly Cloudy
10:50 PM 10.4 °F -0.4 °F 6.8 °F 85% 29.83 in 6.2 mi ENE 6.9 mph - N/A   Mostly Cloudy
11:00 PM 10 °F - 8 °F 89%  in 6 mi ENE 6.9 mph - -   Partly Cloudy
11:50 PM 12.2 °F 2.9 °F 6.8 °F 79% 29.83 in 6.2 mi ENE 5.8 mph - N/A Snow Light Snow